Location: Stamford Observatory
(41.1241°N, 73.5498°W)
Time: 17:14:59
(UTC-04:00)

IRS-P3 - Visible Passes

Search period start: 23 July 2016 00:00
Search period end: 02 August 2016 00:00
Orbit: 815 x 818 km, 98.7° (Epoch: 23 July)

Date Brightness Start Highest point End Pass type
(mag) Time Alt. Az. Time Alt. Az. Time Alt. Az.
23 Jul 6.6 00:59:44 10° E 00:59:58 10° E 01:00:12 10° E visible
23 Jul 4.0 02:35:19 10° NNE 02:40:42 87° ESE 02:41:31 65° S visible
23 Jul 6.2 04:17:30 10° NNW 04:19:57 13° WNW 04:22:22 10° W visible
24 Jul 4.4 02:13:44 10° NNE 02:19:00 56° E 02:19:31 53° ESE visible
24 Jul 5.8 03:54:46 10° NNW 03:58:34 20° WNW 04:00:48 16° W visible
25 Jul 5.1 01:52:21 10° NNE 01:57:15 35° E 01:57:32 35° ESE visible
25 Jul 5.2 03:32:32 10° N 03:37:08 30° WNW 03:38:49 25° W visible
26 Jul 5.8 01:31:16 10° NE 01:35:26 23° E 01:35:32 22° E visible
26 Jul 4.6 03:10:32 10° N 03:15:37 46° WNW 03:16:49 39° WSW visible
27 Jul 6.3 01:10:46 10° ENE 01:13:31 14° E 01:13:32 14° E visible
27 Jul 4.0 02:48:42 10° N 02:54:03 72° WNW 02:54:49 62° SW visible
28 Jul 4.1 02:27:02 10° NNE 02:32:24 74° ESE 02:32:49 70° SE visible
28 Jul 6.0 04:08:43 10° NNW 04:11:46 16° WNW 04:14:06 12° W visible
29 Jul 4.7 02:05:32 10° NNE 02:10:41 46° E 02:10:49 46° ESE visible
29 Jul 5.5 03:46:13 10° NNW 03:50:22 24° WNW 03:52:06 20° W visible
30 Jul 5.4 01:44:14 10° NE 01:48:49 30° E 01:48:49 30° E visible
30 Jul 5.0 03:24:06 10° N 03:28:55 35° WNW 03:30:06 32° W visible
31 Jul 6.0 01:23:19 10° NE 01:26:49 19° E 01:26:49 19° E visible
31 Jul 4.3 03:02:10 10° N 03:07:22 55° WNW 03:08:06 50° W visible
01 Aug 6.5 01:03:23 10° ENE 01:04:48 11° E 01:04:48 11° E visible
01 Aug 3.9 02:40:24 10° NNE 02:45:46 85° WNW 02:46:06 79° SW visible
01 Aug 6.2 04:23:01 10° NW 04:24:56 12° WNW 04:26:52 10° W visible
